This is the latest recevied weather packets stored in our database for station/object KE2HEH. If no packets are shown the sender has not sent any weather packets the latest 10 day(s).
| Time | Temp. | Humidity | Pressure | Rain* | Wind** | Luminosity | Snow |
|---|---|---|---|---|---|---|---|
| 1778188461 | 14.44° C | 63% | 1008.1 hPa | 0 mm | - | 254 W/m² | - |
| 1778188157 | 13.89° C | 67% | 1008.2 hPa | 0 mm | - | 229 W/m² | - |
| 1778187855 | 13.89° C | 72% | 1008.4 hPa | 0 mm | - | 249 W/m² | - |
| 1778187551 | 13.89° C | 70% | 1008.1 hPa | 0 mm | - | 270 W/m² | - |
| 1778187249 | 13.89° C | 73% | 1008.1 hPa | 0 mm | - | 289 W/m² | - |
| 1778186944 | 13.89° C | 72% | 1008.2 hPa | 0 mm | - | 312 W/m² | - |
| 1778186641 | 13.89° C | 74% | 1008.4 hPa | 0 mm | - | 319 W/m² | - |
| 1778186339 | 13.89° C | 74% | 1008.2 hPa | 0 mm | - | 331 W/m² | - |
| 1778186037 | 15° C | 71% | 1008.5 hPa | 0 mm | - | 334 W/m² | - |
| 1778185733 | 13.89° C | 74% | 1008.2 hPa | 0 mm | - | 355 W/m² | - |
| 1778185429 | 13.89° C | 72% | 1008.3 hPa | 0 mm | - | 366 W/m² | - |
| 1778185125 | 13.33° C | 74% | 1008.4 hPa | 0 mm | - | 372 W/m² | - |
| 1778184820 | 13.89° C | 75% | 1008.4 hPa | 0 mm | - | 393 W/m² | - |
| 1778184517 | 13.33° C | 75% | 1008.8 hPa | 0 mm | - | 399 W/m² | - |
| 1778184213 | 13.89° C | 76% | 1008.6 hPa | 0 mm | - | 412 W/m² | - |
| 1778183909 | 13.89° C | 74% | 1008.4 hPa | 0 mm | - | 416 W/m² | - |
| 1778183607 | 13.89° C | 72% | 1008.5 hPa | 0 mm | - | 422 W/m² | - |
| 1778183304 | 14.44° C | 72% | 1008.5 hPa | 0 mm | - | 441 W/m² | - |
| 1778183000 | 13.89° C | 74% | 1008.6 hPa | 0 mm | - | 443 W/m² | - |
| 1778182697 | 13.89° C | 72% | 1008.6 hPa | 0 mm | - | 451 W/m² | - |
| 1778182394 | 13.89° C | 73% | 1008.7 hPa | 0 mm | - | 459 W/m² | - |
| 1778182089 | 13.89° C | 75% | 1008.8 hPa | 0 mm | - | 460 W/m² | - |
| 1778181786 | 13.89° C | 74% | 1008.7 hPa | 0 mm | - | 478 W/m² | - |
| 1778181483 | 14.44° C | 70% | 1008.8 hPa | 0 mm | - | 484 W/m² | - |
| 1778181179 | 14.44° C | 72% | 1009.1 hPa | 0 mm | - | 503 W/m² | - |
* Rain latest hour (hover to see other rain measurements)
** Current wind speed in m/s (hover to see current wind gust speed)